TimeCDT,TemperatureF,Dew PointF,Humidity,Sea Level PressureIn,VisibilityMPH,Wind Direction,Wind SpeedMPH,Gust SpeedMPH,PrecipitationIn,Events,Conditions,WindDirDegrees,DateUTC
12:53 AM,46.9,42.1,83,30.22,10.0,NNW,4.6,-,N/A,,Partly Cloudy,340,2012-10-12 05:53:00
1:53 AM,50.0,45.0,83,30.23,10.0,Calm,Calm,-,N/A,,Overcast,0,2012-10-12 06:53:00
2:53 AM,50.0,46.0,86,30.22,10.0,Calm,Calm,-,0.03,,Overcast,0,2012-10-12 07:53:00
3:53 AM,48.9,46.0,90,30.23,9.0,Calm,Calm,-,N/A,,Mostly Cloudy,0,2012-10-12 08:53:00
4:53 AM,50.0,46.9,89,30.24,8.0,Calm,Calm,-,N/A,,Overcast,0,2012-10-12 09:53:00
5:53 AM,48.9,46.9,93,30.24,8.0,Calm,Calm,-,N/A,,Overcast,0,2012-10-12 10:53:00
6:53 AM,46.0,43.0,89,30.28,6.0,North,5.8,-,N/A,,Clear,360,2012-10-12 11:53:00
7:53 AM,48.0,43.0,83,30.31,9.0,NNE,10.4,-,N/A,,Clear,30,2012-10-12 12:53:00
8:53 AM,52.0,43.0,71,30.34,8.0,NE,9.2,-,N/A,,Clear,50,2012-10-12 13:53:00
9:53 AM,55.0,43.0,64,30.35,9.0,NE,15.0,-,N/A,,Clear,50,2012-10-12 14:53:00
10:53 AM,57.9,44.1,60,30.37,9.0,ENE,11.5,-,N/A,,Clear,60,2012-10-12 15:53:00
12:53 PM,63.0,44.1,50,30.35,9.0,NE,5.8,-,N/A,,Clear,50,2012-10-12 17:53:00
1:53 PM,64.9,44.1,47,30.33,9.0,Variable,3.5,-,N/A,,Clear,0,2012-10-12 18:53:00
2:53 PM,64.9,45.0,48,30.32,7.0,Calm,Calm,-,N/A,,Clear,0,2012-10-12 19:53:00
3:53 PM,66.0,44.1,45,30.30,8.0,SSE,4.6,-,N/A,,Clear,160,2012-10-12 20:53:00
4:53 PM,64.9,45.0,48,30.30,9.0,Variable,3.5,-,N/A,,Clear,0,2012-10-12 21:53:00
5:53 PM,61.0,46.0,58,30.29,9.0,ENE,6.9,-,N/A,,Clear,60,2012-10-12 22:53:00
6:53 PM,57.0,46.0,67,30.29,10.0,ENE,5.8,-,N/A,,Clear,60,2012-10-12 23:53:00
7:53 PM,55.9,45.0,67,30.29,10.0,ENE,6.9,-,N/A,,Clear,60,2012-10-13 00:53:00
9:53 PM,51.1,44.1,77,30.30,10.0,East,8.1,-,N/A,,Clear,80,2012-10-13 02:53:00
10:53 PM,53.1,43.0,69,30.28,10.0,East,9.2,-,N/A,,Scattered Clouds,100,2012-10-13 03:53:00
11:53 PM,51.1,43.0,74,30.28,10.0,ESE,6.9,-,N/A,,Clear,110,2012-10-13 04:53:00